User: anonymous   Login
Location: Unspecified
(0.0000°N, 0.0000°E)
Time: 05:14:01
(UTC+00:00)
Language:

Vela 3B - Orbit

View from above orbital plane
View from above orbital plane
View from above satellite
View from above satellite

Ground track
Ground track

The orbit data is extracted from the following two-line orbital elements,

1 01459U 65058B   15085.00917694 -.00001386  00000-0  00000+0 0  9996
2 01459 003.3067 054.2617 4405661 286.4510 000.7116 00.21408134 39265
Epoch (UTC): 26 March 2015 00:13:12
Eccentricity: 0.4405661
inclination: 3.3067°
perigee height: 59655 km
apogee height: 163659 km
right ascension of ascending node: 54.2617°
argument of perigee: 286.4510°
revolutions per day: 0.21408134
mean anomaly at epoch: 0.7116°
orbit number at epoch: 3926

The dashed part of the orbit path shows where the satellite is in the earth's shadow,  

DLR